Location: Boitzum
(52.1496°N, 9.6943°E)
Time: 00:51:53
(UTC+00:00)

Cosmos 2074 Rocket - Pass Details

Date: 21 April 2026
Orbit: 967 x 984 km, 82.9° (Epoch: 19 May)

Event Time Altitude Azimuth Distance (km) Brightness Sun altitude
Rises 02:53:29 0° 355° (N) 3,705 7.5 -11.3°
Reaches altitude 10° 02:56:51 10° 12° (NNE) 2,754 7.1 -10.9°
Maximum altitude 03:01:15 19° 57° (ENE) 2,147 7.1 -10.4°
Drops below altitude 10° 03:05:38 10° 102° (ESE) 2,743 7.0 -9.8°
Sets 03:08:58 0° 119° (ESE) 3,685 7.4 -9.4°
